Погода в Козлово

Россия / Астраханская область     46°25′07″N   48°33′45″E
темп.,
°C
ветер,
м/с
пор.,
м/с
влажн.,
%
обл.,
%
осадки,
мм/ч
давл.,
гПа
погр.,
м
20 апреля, вт
вт2001:00+14ююз3479100 0.0 1015185
04:00+12ю2284100 0.0 101523
07:00+13вюв358396 0.0 1015165
10:00+17юв6866100 0.0 1015669
13:00+18юв81064100 0.3 1014811
16:00+18вюв101261100 0.3 1013801
19:00+16вюв81561100 0.0 1013612
22:00+15вюв112066100 0.2 1013618
21 апреля, ср
ср2101:00+14вюв91765100 0.1 1014595
04:00+13вюв71468100 0.1 1015635
07:00+13вюв81372100 0.0 1015535
10:00+12вюв71283100 2.3 1017482
13:00+14в4566100 0.3 1017555
16:00+19в4548100 0.3 10161192
19:00+17св5756100 0.3 1017402
22:00+13ссз6967100 0.4 1018229
22 апреля, чт
чт2201:00+12ссз59694 0.1 1017184
04:00+11сз6107229 0.1 1018209
07:00+11ссз61067100 0.0 1018324
10:00+14с6855100 0.1 1019614
13:00+18ссз7744100 0.0 1020889
16:00+19ссз894171 0.0 10201241
19:00+17ссз5846100 0.0 1021653
22:00+14с4845100 0.0 1021224
23 апреля, пт
пт2301:00+12с4850100 0.0 1020217
04:00+12с51052100 0.0 1020290
07:00+11ссз3757100 0.2 1021313
10:00+14ссз5644100 0.3 1020700
13:00+18ссз783579 0.0 10201206
16:00+18ссз783597 0.0 10191487
19:00+16ссз574093 0.0 10201138
22:00+13ссз35531 0.0 102083
24 апреля, сб
сб2401:00+11сз34601 0.0 102065
04:00+10сз35685 0.0 102088
07:00+11сз24710 0.0 1021145
10:00+16сз34494 0.0 1021939
13:00+20зсз34355 0.0 10202146
16:00+21зсз332928 0.0 10192410
19:00+20юз2333100 0.0 1019111
22:00+15ююз5853100 0.0 1020347